User: anonymous   Login
Location: Unspecified
(0.0000°N, 0.0000°E)
Time: 17:35:37
(UTC+01:00)
Language:

Cosmos 2263 Rocket - Orbit

View from above orbital plane
View from above orbital plane
View from above satellite
View from above satellite

Ground track
Ground track

The orbit data is extracted from the following two-line orbital elements,

1 22803U 93059B   16339.35758720  .00000215  00000-0  13107-3 0  9993
2 22803  70.9905 299.9810 0018814 316.5990  43.3651 14.16759524200682
Epoch (UTC): 04 December 2016 08:34:55
Eccentricity: 0.0018814
inclination: 70.9905°
perigee height: 823 km
apogee height: 850 km
right ascension of ascending node: 299.9810°
argument of perigee: 316.5990°
revolutions per day: 14.16759524
mean anomaly at epoch: 43.3651°
orbit number at epoch: 20068

The dashed part of the orbit path shows where the satellite is in the earth's shadow,  

DLR